Location: Boissi�res
(45.2500°N, 2.3667°E)
Time: 16:15:44
(UTC+00:00)

USA 234 - Pass Details

Date: 03 March 2021
Orbit: 1102 x 1105 km, 123.0° (Epoch: 08 April)

Event Time Altitude Azimuth Distance (km) Brightness Sun altitude
Exits shadow 19:39:56 22° 54° (NE) 2,195 4.5 -21.7°
Maximum altitude 19:44:26 82° 140° (SE) 1,117 3.1 -22.4°
Drops below altitude 10° 19:50:59 10° 229° (SW) 2,955 5.9 -23.6°
Sets 19:53:28 0° 230° (SW) 3,911 6.6 -24.0°
